Skip Page Navigation
NASA JPL Caltech
NASA Logo - Jet Propulsion Laboratory + View the NASA Portal
+ Center for Near-Earth Object Studies
JPL Home Earth Solar System Stars & Galaxies Technology
JPL Solar System Dynamics
BODIES ORBITS EPHEMERIDES TOOLS PHYSICAL DATA DISCOVERY FAQ SITE MAP
JPL Small-Body Database Browser
Search: [ help ]  
152360 (2005 UM130)
Classification: Main-belt Asteroid          SPK-ID: 2152360
Ephemeris | Orbit Diagram | Orbital Elements | Mission Design | Physical Parameters | Discovery Circumstances | Close-Approach Data ]

[ show orbit diagram ]
Orbital Elements at Epoch 2459200.5 (2020-Dec-17.0) TDB
Reference: JPL 21 (heliocentric ecliptic J2000)
 Element Value Uncertainty (1-sigma)   Units 
e .1508640649610716 5.2738e-08  
a 3.135590028045696 2.7303e-08 au
q 2.662542170363322 1.6543e-07 au
i 13.46112115316014 5.4607e-06 deg
node 92.11976503975241 2.2519e-05 deg
peri 301.0371189384402 2.7802e-05 deg
M 272.6983218834445 1.9354e-05 deg
tp 2459692.310084715719
(2022-Apr-22.81008472)
0.00011325 TDB
period 2028.043839676015
5.55
2.6488e-05
7.252e-08
d
yr
n .1775109556100675 2.3185e-09 deg/d
Q 3.60863788572807 3.1422e-08 au
  Orbit Determination Parameters
   # obs. used (total)      482  
   data-arc span      8514 days (23.31 yr)  
   first obs. used      1997-03-30  
   last obs. used      2020-07-21  
   planetary ephem.      DE441  
   SB-pert. ephem.      SB441-N16  
   condition code      0  
   norm. resid. RMS      .58067  
   source      ORB  
   producer      Otto Matic  
   solution date      2021-Apr-13 19:26:48  

Additional Information
 Earth MOID = 1.69895 au 
 Jupiter MOID = 1.87771 au 
 T_jup = 3.152 
[ show covariance matrix ]

Ephemeris | Orbit Diagram | Orbital Elements | Mission Design | Physical Parameters | Discovery Circumstances | Close-Approach Data ]

Physical Parameter Table
Parameter Symbol Value Units Sigma Reference Notes
absolute magnitude H 14.94   n/a E2020-QM9  
diameter diameter 5.262 km 0.131 urn:nasa:pds:neowise_diameters_albedos::2.0[mainbelt] (http://adsabs.harvard.edu/abs/2011ApJ...741...68M)  
geometric albedo albedo 0.084   0.017 urn:nasa:pds:neowise_diameters_albedos::2.0[mainbelt] (http://adsabs.harvard.edu/abs/2011ApJ...741...68M)  

152360 (2005 UM130)          Discovered 2005-Oct-24 by NEAT at Palomar
Reference: 20070303/Numbers.arcLast Updated: 2007-03-07

[ show close-approach data ]
Alternate Designations
 2005 UM130 = 2000 YT107 
Ephemeris | Orbit Diagram | Orbital Elements | Mission Design | Physical Parameters | Discovery Circumstances | Close-Approach Data ]
ABOUT SSD CREDITS/AWARDS PRIVACY/COPYRIGHT GLOSSARY LINKS
FirstGov 2021-Apr-14 06:35 UT
(server date/time)  
NASA Home Page
Site Manager:   Ryan S. Park
Webmaster  Alan B. Chamberlin